STARLINK-11247, 60720

Orbit data source: Space-Track

STARLINK-11247, 60720 is a payload satellite owned by SpaceX/Seattle (US) in LEO that was launched on Wed, 28 Aug 2024 UTC via an FALCON 9 launch vehicle from the Air Force Eastern Test Range (AFETR). Payload-class satellites include a variety of spacecraft equipped with specific instruments for various scientific and technological missions. These include communications satellites like Starlink; space stations such as the ISS; scientific satellites like the Hubble; Earth observation satellites from companies like Planet Labs, Umbra, and HawkEye 360; GPS; miniature CubeSats for education and research; and military/defense satellites.

Loading next visibility...
Identifier
60720, 2024-152A
Orbit
LEO
Country
Flag of USUS
Related business
Manufacturer
SpaceX/Seattle
Mission
Operational Commercial Communications
Bus & Motor
STARLINK V2MD, Unknown motor
Mass
960 kg wet, ~910 kg dry
Launch date (UTC)
2024-08-28 (1 year ago)
Launch vehicle
FALCON 9
Launch site
Air Force Eastern Test Range (AFETR)
Object type
Payload
Rocket body
Debris
Shape & HBR
Box + 2 Pan, 18.1 m
Radar Cross Section
36.964 m², Large (>1 m²)

Expand to show TLE details & history
Last TLE update: 10 hours ago

TLE from 10 hours ago
0 STARLINK-11247
1 60720U 24152A   26036.36401305  .00005132  00000-0  47162-4 0  9993
2 60720  53.1590 275.9254 0001364  79.2720 280.8452 15.69726769 83755
Epoch: 2026-02-05T08:44Z
TLE epoch observation values (Epoch: 2026-02-05T08:44:10.727Z)
Latitude
0.00002°
Longitude
9.36342°
Altitude
360.421 km
Speed
7.694 km/s
True Right ascension
18h 23m 42s
True Declination
0° 00' 00"
Sunlit
Object was in daylight at epoch
Visualization orbit readout
Latitude
Unknown
Longitude
Unknown
Altitude
Unknown
Speed
Unknown
Apparent Right ascension
Unknown
Apparent Declination
Unknown
Sunlit
N/A
Visualization observer readout
Local Sidereal Time
21:12:45
Azimuth
Unknown
Elevation
Unknown
Doppler factor
Unknown
Orbital elements
Apogee altitude
360.859 km
Perigee altitude
359.021 km
Semi-major axis
6,738.077 km
Eccentricity
0.00014
Inclination
53.159°
RAAN
275.9254°
Arg. of periapsis
79.272°
True anomaly
280.82985°
Mean anomaly
280.8452°
Eccentric anomaly
280.83752°
Mean motion
3.92409 °/min
Orbital period
91.74 mins
BSTAR
0.000047162
Loading maneuver chart data...
Computing Atmospheric mass density...
Loading historical data...
Loading historical data...
Loading historical data...
Loading historical data...
Loading historical data...
Loading historical data...
Loading historical data...

Documentation

Showing up to 5 results
|